Simultaneous Nadir Overpasses (SNOs) Predictions

Prediction of SNOs between GOES-16 and TERRA Satellite Orbit:

Table of predicted SNOs for the next 14.0 days since TLE Epoch: 2/18/2023
Index Date Time (GOES-16) GOES-16 Lat,Lon TERRA Lat,Lon Distance(km) Time Diff (sec)
1 02/18/2023 03:22:14 -0.03, -75.18 -0.52, -77.58 272.27 80
2 02/20/2023 03:03:38 -0.04, -75.19 0.28, -73.73 166.50 80
3 02/20/2023 15:26:35 0.04, -75.21 0.76, -78.66 391.45 80
4 02/22/2023 15:07:59 0.04, -75.24 -0.08, -74.81 48.87 80
5 02/24/2023 14:52:02 0.04, -75.26 -0.88, -70.96 489.81 80
6 02/25/2023 03:15:08 -0.04, -75.26 -0.19, -75.92 75.24 80
7 02/27/2023 02:56:31 -0.04, -75.29 0.65, -72.07 366.56 80
8 02/27/2023 15:19:28 0.04, -75.31 0.37, -77.00 190.89 80
9 03/01/2023 15:00:50 0.03, -75.35 -0.46, -73.14 251.73 80
10 03/02/2023 03:23:56 -0.04, -75.35 -0.59, -78.10 312.81 80
